Regional Weather Roundup
Issued by NWS

Home | Current Version | Previous Version | Text Only | Print | Product List | Glossary On
Versions: 1 2 3 4 5 6 7 8 9 10 11 12 13 14 15 16 17 18 19 20 21 22 23 24 25 26 27 28 29 30 31 32 33 34 35 36 37 38 39 40 41 42 43 44 45 46 47 48 49 50
000
ASUS43 KDTX 251610
RWRMI
MICHIGAN HOURLY REGIONAL WEATHER ROUNDUP
NATIONAL WEATHER SERVICE DETROIT/PONTIAC MI
1200 PM EDT WED MAY 25 2016

NOTE: "FAIR" INDICATES FEW OR NO CLOUDS BELOW 12,000 FEET WITH NO
SIGNIFICANT WEATHER AND/OR OBSTRUCTION TO VISIBILITY.

MIZ047>049-052>055-059>063-066>070-074>076-081>083-251700-
SOUTHEAST LOWER MICHIGAN

CITY           SKY/WX    TMP DP  RH WIND       PRES   REMARKS
ADRIAN         MOSUNNY   81  58  45 SW13      30.09F
ALMA           MOSUNNY   79  64  58 W7        30.05F
ANN ARBOR      SUNNY     81  60  48 VRB7G16   30.07F
BAD AXE        SUNNY     79  56  45 W6        30.07S
CARO           PTSUNNY   78  62  57 SW6       30.05F
DETROIT CITY   SUNNY     81  55  40 W12       30.08F
DETROIT        MOSUNNY   82  57  42 SW10G23   30.08F
FLINT          SUNNY     84  58  40 SW9       30.06F
GROSSE ILE     SUNNY     73  61  64 S7        30.07F
HILLSDALE      SUNNY     79  51  37 S9        30.09F
HOWELL         SUNNY     81  58  45 W8        30.07F

CITY           SKY/WX    TMP DP  RH WIND       PRES   REMARKS
JACKSON        SUNNY     80  59  48 SW14      30.07F
LAMBERTVILLE   SUNNY     83  56  40 SW8       30.09F
LANSING        SUNNY     80  60  50 W7        30.06F
LAPEER         FAIR      82  55  39 W8        30.07F
MASON          SUNNY     80  59  48 SW9       30.06F
MONROE         SUNNY     82  58  44 SW9G16    30.07F
MT. CLEMENS    MOSUNNY   84  57  40 SW14      30.07S
PONTIAC        MOSUNNY   81  57  43 SW12G18   30.07F
PORT HOPE        N/A     60  55  83 NE5       30.06R
PORT HURON     PTSUNNY   81  57  44 W6        30.07F
TRI CITIES     CLOUDY    80  60  50 W7        30.05F
MIDLAND        PTSUNNY   78  59  51 CALM      30.04F
TROY           SUNNY     83  53  35 SW10G17   30.09F
SAGINAW HB     MOSUNNY   79  59  50 SW12      30.05S
$$
MIZ043>046-050>051-056>058-064>065-071>073-077>080-251700-
SOUTHWEST LOWER MICHIGAN

CITY           SKY/WX    TMP DP  RH WIND       PRES   REMARKS
BATTLE CREEK   SUNNY     79  60  52 S12       30.06F
BENTON HARBOR  MOSUNNY   82  62  50 S9        30.01F
BIG RAPIDS     CLOUDY    76  62  61 SE3       30.03F
COLDWATER      MOSUNNY   79  60  51 S6        30.06F
FREMONT        FAIR      78  64  61 S5        30.02F
HOLLAND        SUNNY     83  63  50 SW8       30.03F
GRAND RAPIDS   MOSUNNY   84  61  45 S7        30.03F
IONIA          FAIR      82  58  43 SW9       30.03F
KALAMAZOO      SUNNY     81  60  48 S7        30.05F
LUDINGTON      MOSUNNY   71  57  59 SW9       30.02S
MARSHALL       MOSUNNY   81  60  49 SW8       30.06F
MOUNT PLEASANT CLOUDY    78  60  52 S3        30.03F
MUSKEGON       MOSUNNY   78  60  53 SW8       30.03F
SOUTH HAVEN    MOSUNNY   80  62  54 S8        30.02F
$$
MIZ016>042-251700-
NORTHERN LOWER MICHIGAN

CITY           SKY/WX    TMP DP  RH WIND       PRES   REMARKS
ALPENA         MOSUNNY   74  57  55 E3        30.07S
BEAVER ISLAND  CLOUDY    59  57  94 E7        30.08F FOG
BELLAIRE       SUNNY     72  60  66 CALM      30.04F
CADILLAC       SUNNY     81  58  45 SW6       30.03F
CHARLEVOIX     CLOUDY    60  60  98 N6        30.09S FOG
FRANKFORT      MOSUNNY   73  60  63 NE5       30.02F
GAYLORD        SUNNY     74  61  63 SE5       30.06F
GRAYLING       SUNNY     78  58  49 NW5       30.06S
HARBOR SPRINGS CLOUDY    60  58  91 NE8       30.08S
HOUGHTON LAKE  SUNNY     77  57  50 W3        30.05F
MANISTEE       MOSUNNY   79  61  53 NW7       30.02F
OSCODA         SUNNY     71  55  58 E7        30.08R
PELLSTON       CLOUDY    59  56  89 E8        30.09S
ROGERS CITY    CLOUDY    58  54  87 N3        30.10S
TRAVERSE CITY  PTSUNNY   65  55  70 N8        30.04F
$$
MIZ007>008-015-251700-
EASTERN UPPER MICHIGAN

CITY           SKY/WX    TMP DP  RH WIND       PRES   REMARKS
KINROSS          N/A     59  55  88 E5        30.10S
MACKINAC ISLAN CLOUDY    56  56 100 SE6       30.10R FOG
NEWBERRY       CLOUDY    60  58  96 E6        30.09S
MUNISING         N/A     48  45  89 NE8       30.10F
$$
MIZ004>006-011>014-085-251700-
CENTRAL UPPER MICHIGAN

CITY           SKY/WX    TMP DP  RH WIND       PRES   REMARKS
MANISTIQUE     CLOUDY    60  57  91 NE6       30.07F
ESCANABA       CLOUDY    64  55  72 NE7       30.06F
MENOMINEE      CLOUDY    60  54  80 E12       30.06S
SAWYER-GWINN   CLOUDY    52  50  93 NE9       30.10F
$$
MIZ001>003-009>011-084-251700-
WESTERN UPPER MICHIGAN

CITY           SKY/WX    TMP DP  RH WIND       PRES   REMARKS
IRON MOUNTAIN  CLOUDY    59  53  80 E5        30.06S
HOUGHTON       CLOUDY    51  46  83 E9        30.09F
COPPER HARBOR    N/A     54  46  74 S10G17    30.11S
IRONWOOD       PTSUNNY   64  59  82 SE8       30.00S
$$

ABBREVIATIONS USED IN REMARKS
   TC - TEMPERATURE IN CELSIUS
  WCI - WIND CHILL INDEX
   HX - HEAT INDEX
  VSB - VISIBILITY





USA.gov is the U.S. government's official web portal to all federal, state and local government web resources and services.